TimeCDT,TemperatureF,Dew PointF,Humidity,Sea Level PressureIn,VisibilityMPH,Wind Direction,Wind SpeedMPH,Gust SpeedMPH,PrecipitationIn,Events,Conditions,WindDirDegrees,DateUTC
12:15 AM,62.6,57.7,84,30.30,10.0,NE,8.1,-,N/A,,Mostly Cloudy,50,2013-09-12 05:15:00
12:35 AM,62.6,58.1,85,30.30,10.0,NE,6.9,-,N/A,,Overcast,40,2013-09-12 05:35:00
12:55 AM,62.2,57.9,86,30.30,10.0,NNE,9.2,-,N/A,,Overcast,30,2013-09-12 05:55:00
1:15 AM,61.7,57.6,86,30.30,10.0,NNE,8.1,-,N/A,,Drizzle,30,2013-09-12 06:15:00
1:35 AM,60.3,58.1,93,30.30,5.0,NNE,8.1,-,0.05,Rain,Light Rain,20,2013-09-12 06:35:00
1:55 AM,60.3,58.1,93,30.30,10.0,NNE,5.8,-,0.05,Rain,Light Rain,30,2013-09-12 06:55:00
2:15 AM,60.4,58.5,93,30.30,5.0,NE,4.6,-,0.06,Rain,Light Rain,40,2013-09-12 07:15:00
2:35 AM,60.4,58.5,93,30.30,5.0,NE,6.9,-,0.07,Rain,Heavy Rain,40,2013-09-12 07:35:00
2:55 AM,60.8,58.5,92,30.30,7.0,ENE,10.4,-,0.08,,Drizzle,60,2013-09-12 07:55:00
3:15 AM,61.2,59.2,93,30.30,10.0,ENE,5.8,-,N/A,,Overcast,60,2013-09-12 08:15:00
3:35 AM,61.2,59.4,94,30.30,7.0,NE,5.8,-,N/A,,Overcast,50,2013-09-12 08:35:00
3:55 AM,61.0,59.2,94,30.30,5.0,NE,4.6,-,N/A,Rain,Light Rain,40,2013-09-12 08:55:00
4:15 AM,61.0,59.4,94,30.30,3.0,NE,4.6,-,0.01,,Heavy Drizzle,40,2013-09-12 09:15:00
4:35 AM,61.2,59.5,94,30.30,5.0,NE,5.8,-,0.01,,Overcast,40,2013-09-12 09:35:00
4:55 AM,61.0,59.4,94,30.29,4.0,NNE,6.9,-,0.02,,Light Drizzle,30,2013-09-12 09:55:00
5:15 AM,61.5,60.1,95,30.30,3.0,NE,4.6,-,N/A,,Overcast,50,2013-09-12 10:15:00
5:35 AM,61.7,60.4,96,30.30,3.0,ENE,8.1,-,N/A,,Overcast,60,2013-09-12 10:35:00
5:55 AM,61.9,60.4,95,30.30,5.0,ENE,6.9,-,N/A,,Overcast,70,2013-09-12 10:55:00
6:15 AM,61.9,60.4,95,30.30,5.0,East,6.9,-,N/A,,Overcast,90,2013-09-12 11:15:00
6:35 AM,61.9,60.3,94,30.30,5.0,East,5.8,-,N/A,,Overcast,80,2013-09-12 11:35:00
6:55 AM,61.9,60.3,94,30.31,5.0,East,6.9,-,N/A,,Overcast,90,2013-09-12 11:55:00
7:15 AM,61.7,59.9,94,30.31,4.0,NE,6.9,-,N/A,,Overcast,40,2013-09-12 12:15:00
7:35 AM,60.8,59.2,94,30.31,4.0,NE,8.1,-,N/A,,Overcast,40,2013-09-12 12:35:00
7:55 AM,60.4,59.0,95,30.31,5.0,NE,10.4,-,N/A,,Overcast,40,2013-09-12 12:55:00
8:15 AM,60.8,59.0,94,30.32,3.0,NE,8.1,-,N/A,,Overcast,40,2013-09-12 13:15:00
8:35 AM,60.8,59.2,94,30.33,3.0,NE,6.9,-,N/A,,Overcast,50,2013-09-12 13:35:00
8:55 AM,60.8,59.4,95,30.33,3.0,NE,8.1,-,N/A,,Overcast,40,2013-09-12 13:55:00
9:15 AM,61.0,59.5,95,30.33,3.0,NE,9.2,-,N/A,,Overcast,40,2013-09-12 14:15:00
9:35 AM,61.2,59.7,95,30.33,2.5,NE,8.1,-,N/A,,Overcast,50,2013-09-12 14:35:00
9:55 AM,61.9,60.3,94,30.34,3.0,NE,10.4,-,N/A,,Overcast,50,2013-09-12 14:55:00
10:15 AM,62.1,60.1,93,30.34,3.0,ENE,9.2,-,N/A,Rain,Rain,60,2013-09-12 15:15:00
10:35 AM,62.1,60.1,93,30.34,2.5,East,9.2,-,0.01,Rain,Rain,80,2013-09-12 15:35:00
10:55 AM,62.6,60.3,92,30.35,5.0,East,12.7,16.1,0.01,,Light Drizzle,80,2013-09-12 15:55:00
11:15 AM,63.7,60.6,90,30.35,7.0,East,13.8,-,N/A,,Overcast,80,2013-09-12 16:15:00
11:35 AM,64.6,60.3,86,30.35,10.0,East,12.7,-,N/A,,Overcast,90,2013-09-12 16:35:00
11:55 AM,65.8,58.6,78,30.34,10.0,East,12.7,-,N/A,,Overcast,80,2013-09-12 16:55:00
12:15 PM,68.2,57.2,68,30.34,10.0,East,15.0,20.7,N/A,,Overcast,80,2013-09-12 17:15:00
12:35 PM,68.4,55.9,64,30.34,10.0,East,17.3,24.2,N/A,,Overcast,90,2013-09-12 17:35:00
12:55 PM,69.8,55.9,61,30.34,10.0,East,15.0,-,N/A,,Mostly Cloudy,90,2013-09-12 17:55:00
1:15 PM,69.4,55.0,60,30.34,10.0,East,17.3,21.9,N/A,,Mostly Cloudy,90,2013-09-12 18:15:00
1:35 PM,70.2,54.1,57,30.33,10.0,East,17.3,-,N/A,,Mostly Cloudy,100,2013-09-12 18:35:00
1:55 PM,69.8,55.0,59,30.33,10.0,ESE,16.1,-,N/A,,Overcast,110,2013-09-12 18:55:00
2:15 PM,70.3,56.3,61,30.32,10.0,East,15.0,21.9,N/A,,Mostly Cloudy,100,2013-09-12 19:15:00
2:35 PM,68.4,56.8,67,30.32,10.0,East,12.7,-,N/A,,Overcast,100,2013-09-12 19:35:00
2:55 PM,68.0,57.6,69,30.31,10.0,East,15.0,19.6,N/A,,Overcast,100,2013-09-12 19:55:00
3:15 PM,65.5,59.9,82,30.30,7.0,ESE,15.0,-,N/A,,Drizzle,110,2013-09-12 20:15:00
3:35 PM,64.8,60.3,85,30.30,5.0,ESE,15.0,-,0.02,Rain,Light Rain,110,2013-09-12 20:35:00
3:55 PM,64.8,61.9,90,30.30,3.0,ESE,11.5,16.1,0.02,Rain,Rain,120,2013-09-12 20:55:00
4:15 PM,64.4,61.9,92,30.30,4.0,ESE,10.4,-,0.01,Rain,Light Rain,120,2013-09-12 21:15:00
4:35 PM,64.6,62.2,92,30.29,5.0,East,10.4,-,0.02,Rain,Light Rain,100,2013-09-12 21:35:00
4:55 PM,64.4,61.9,92,30.29,7.0,East,13.8,18.4,0.03,Rain,Light Rain,90,2013-09-12 21:55:00
5:15 PM,64.2,61.5,91,30.29,10.0,East,13.8,-,N/A,,Overcast,80,2013-09-12 22:15:00
5:35 PM,63.7,56.5,77,30.28,10.0,East,12.7,-,N/A,,Mostly Cloudy,80,2013-09-12 22:35:00
5:55 PM,64.4,57.2,77,30.27,10.0,East,8.1,-,N/A,,Overcast,80,2013-09-12 22:55:00
6:15 PM,64.4,58.5,81,30.28,10.0,ENE,8.1,-,N/A,,Overcast,60,2013-09-12 23:15:00
6:35 PM,64.6,58.6,81,30.27,10.0,ENE,5.8,-,N/A,,Overcast,60,2013-09-12 23:35:00
6:55 PM,65.5,59.2,80,30.27,10.0,ESE,6.9,-,N/A,,Overcast,110,2013-09-12 23:55:00
7:15 PM,66.7,58.3,74,30.27,10.0,SE,12.7,16.1,N/A,,Overcast,140,2013-09-13 00:15:00
7:35 PM,65.7,57.0,74,30.28,10.0,SE,11.5,-,N/A,,Overcast,130,2013-09-13 00:35:00
7:55 PM,65.3,57.2,75,30.28,10.0,SE,13.8,-,N/A,,Scattered Clouds,130,2013-09-13 00:55:00
8:15 PM,64.6,56.3,74,30.28,10.0,SE,8.1,-,N/A,,Mostly Cloudy,130,2013-09-13 01:15:00
8:35 PM,64.0,56.7,77,30.28,10.0,SE,9.2,-,N/A,,Overcast,140,2013-09-13 01:35:00
8:55 PM,63.1,56.5,79,30.28,10.0,SE,9.2,-,N/A,,Overcast,130,2013-09-13 01:55:00
9:15 PM,62.6,54.0,73,30.28,10.0,ESE,8.1,-,N/A,,Overcast,120,2013-09-13 02:15:00
9:35 PM,61.3,54.0,77,30.28,10.0,ESE,6.9,-,N/A,,Mostly Cloudy,110,2013-09-13 02:35:00
9:55 PM,61.7,53.6,75,30.28,10.0,ESE,6.9,-,N/A,,Overcast,120,2013-09-13 02:55:00
10:15 PM,61.7,53.1,73,30.28,10.0,SE,9.2,-,N/A,,Overcast,130,2013-09-13 03:15:00
10:35 PM,61.7,54.1,76,30.28,10.0,ESE,11.5,-,N/A,,Overcast,120,2013-09-13 03:35:00
10:55 PM,61.7,55.2,79,30.28,10.0,ESE,10.4,-,N/A,,Overcast,120,2013-09-13 03:55:00
11:15 PM,61.7,57.0,85,30.28,10.0,ESE,11.5,-,N/A,,Overcast,120,2013-09-13 04:15:00
11:35 PM,60.8,58.5,92,30.27,4.0,SE,11.5,-,N/A,,Overcast,130,2013-09-13 04:35:00
11:55 PM,61.0,59.0,93,30.27,10.0,SE,12.7,-,N/A,,Overcast,130,2013-09-13 04:55:00